DW1345 Weather Reports


time (UTC)temp
C
wind
direction
speed
KPH
gust
KPH
rain 1hr
cm
rain 24hr
cm
rain mn
cm
humidity
%
barometer
mb
20260509173050 7 121 6.4 0.0 0.00 0.00 0.05 81 1012.1
20260509171542 8 107 8.0 0.0 0.00 0.00 0.05 80 1012.4
20260509170039 8 103 8.0 0.0 0.00 0.00 0.05 79 1012.6
20260509164529 8 109 6.4 0.0 0.00 0.00 0.05 78 1012.7
20260509163029 8 105 4.8 0.0 0.00 0.00 0.05 78 1012.8
20260509161526 8 80 6.4 0.0 0.00 0.00 0.05 79 1013.1
20260509160026 8 79 6.4 0.0 0.00 0.00 0.05 79 1013.2
20260509154524 8 86 6.4 0.0 0.00 0.00 0.03 79 1013.4
20260509153022 8 105 3.2 0.0 0.00 0.00 0.03 78 1013.6
20260509151521 9 119 1.6 0.0 0.00 0.00 0.03 77 1013.8
20260509150022 9 199 0.0 0.0 0.00 0.00 0.03 76 1014.0
20260509144517 9 202 0.0 0.0 0.00 0.00 0.03 74 1014.2
20260509143017 10 202 1.6 0.0 0.00 0.00 0.00 71 1014.2
20260509141520 10 147 0.0 0.0 0.00 0.00 0.00 67 1014.3
20260509140018 10 141 0.0 0.0 0.00 0.00 0.00 62 1014.5
20260509134512 11 189 0.0 0.0 0.00 0.00 0.00 60 1014.5
20260509133012 11 189 0.0 0.0 0.00 0.00 0.00 61 1014.6
20260509131516 11 191 0.0 0.0 0.00 0.00 0.00 61 1014.5
20260509130011 11 192 0.0 0.0 0.00 0.00 0.00 65 1014.6
20260509124510 11 198 1.6 0.0 0.00 0.00 0.00 68 1014.7
20260509123019 11 227 0.0 0.0 0.00 0.00 0.00 67 1014.7
20260509121514 11 225 1.6 0.0 0.00 0.00 0.00 66 1014.7
20260509120009 11 237 1.6 0.0 0.00 0.00 0.00 67 1014.6
20260509114508 11 191 1.6 0.0 0.00 0.00 0.00 61 1014.6
20260509113006 12 202 0.0 0.0 0.00 0.00 0.00 65 1014.7
20260509111506 11 209 1.6 0.0 0.00 0.00 0.00 66 1014.8
20260509110010 10 225 1.6 0.0 0.00 0.00 0.00 69 1014.8
20260509104503 10 229 1.6 0.0 0.00 0.00 0.00 68 1014.9
20260509103003 11 209 3.2 0.0 0.00 0.00 0.00 63 1014.8
20260509101600 11 200 1.6 0.0 0.00 0.00 0.00 62 1015.1
20260509100059 12 186 1.6 0.0 0.00 0.00 0.00 65 1015.0
20260509094610 11 193 4.8 0.0 0.00 0.00 0.00 63 1015.1
20260509093054 11 193 6.4 0.0 0.00 0.00 0.00 62 1015.2
20260509091555 12 198 3.2 0.0 0.00 0.00 0.00 61 1015.2
20260509090101 11 248 3.2 0.0 0.00 0.00 0.00 64 1015.5
20260509084558 11 189 3.2 0.0 0.00 0.00 0.00 64 1015.4
20260509083050 11 189 1.6 0.0 0.00 0.00 0.00 62 1015.6
20260509081547 11 210 1.6 0.0 0.00 0.00 0.00 63 1015.6
20260509080046 11 194 6.4 0.0 0.00 0.00 0.00 63 1015.8
20260509074549 11 247 3.2 0.0 0.00 0.00 0.00 52 1015.8
20260509073041 11 248 4.8 0.0 0.00 0.00 0.00 56 1015.8
20260509071539 12 245 3.2 0.0 0.00 0.00 0.00 51 1015.8
20260509070036 12 162 9.7 0.0 0.00 0.00 0.00 43 1015.7
20260509064534 12 89 6.4 0.0 0.00 0.00 0.00 43 1015.5
20260509063030 11 170 9.7 0.0 0.00 0.00 0.00 44 1015.6
20260509061529 11 132 9.7 0.0 0.00 0.00 0.00 44 1015.5
20260509060027 11 116 11.3 0.0 0.00 0.00 0.00 45 1015.4
20260509054538 11 113 11.3 0.0 0.00 0.00 0.00 45 1015.5
20260509053059 11 155 8.0 0.0 0.00 0.00 0.00 47 1015.4
20260509051526 11 98 11.3 0.0 0.00 0.00 0.00 46 1015.4
20260509050036 11 102 11.3 0.0 0.00 0.00 0.00 47 1015.4
20260509044519 10 76 9.7 0.0 0.00 0.00 0.00 48 1015.4
20260509043018 10 88 11.3 0.0 0.00 0.00 0.00 49 1015.5
20260509041516 10 118 11.3 0.0 0.00 0.00 0.00 49 1015.6
20260509040016 10 85 11.3 0.0 0.00 0.00 0.00 50 1015.7
20260509034514 10 149 12.9 0.0 0.00 0.00 0.00 49 1015.7
20260509033013 10 142 11.3 0.0 0.00 0.00 0.00 48 1015.7
20260509031512 10 127 11.3 0.0 0.00 0.00 0.00 48 1015.8
20260509030025 10 128 9.7 0.0 0.00 0.00 0.00 50 1016.0
20260509024511 10 128 12.9 0.0 0.00 0.00 0.00 50 1015.9
20260509023020 9 130 14.5 0.0 0.00 0.00 0.00 50 1015.9
20260509021507 9 74 9.7 0.0 0.00 0.00 0.00 50 1016.3
20260509020006 9 68 6.4 0.0 0.00 0.00 0.00 51 1016.4
20260509014506 10 48 4.8 0.0 0.00 0.00 0.00 49 1016.5
20260509013004 10 93 8.0 0.0 0.00 0.00 0.00 48 1016.4
20260509011505 10 126 11.3 0.0 0.00 0.00 0.00 48 1016.4
20260509010011 10 59 16.1 0.0 0.00 0.00 0.00 48 1016.4
20260509004501 10 153 16.1 0.0 0.00 0.00 0.00 49 1016.6
20260509003133 10 170 16.1 0.0 0.00 0.00 0.00 49 1016.7
20260509001606 10 132 14.5 0.0 0.00 0.00 0.00 49 1016.8
20260509000111 9 132 16.1 0.0 0.00 0.00 0.00 50 1016.9
20260508234554 9 71 14.5 0.0 0.00 0.00 0.00 50 1017.0
20260508233052 9 144 16.1 0.0 0.00 0.00 0.00 50 1017.1
20260508231552 8 92 14.5 0.0 0.00 0.00 0.00 51 1017.4
20260508230046 8 98 12.9 0.0 0.00 0.00 0.00 51 1017.5
20260508224545 8 128 11.3 0.0 0.00 0.00 0.00 54 1017.9
20260508223042 8 119 12.9 0.0 0.00 0.00 0.00 53 1018.1
20260508221537 9 95 14.5 0.0 0.00 0.00 0.00 48 1017.9
20260508220034 8 88 12.9 0.0 0.00 0.00 0.05 48 1018.1
20260508214534 8 129 11.3 0.0 0.00 0.00 0.05 49 1018.4
20260508213034 8 83 11.3 0.0 0.00 0.00 0.05 47 1018.5
20260508211532 8 93 11.3 0.0 0.00 0.00 0.05 48 1018.3
20260508210034 8 85 11.3 0.0 0.00 0.00 0.05 47 1018.3
20260508204532 8 127 11.3 0.0 0.00 0.00 0.05 48 1018.7
20260508203034 8 138 9.7 0.0 0.00 0.00 0.05 50 1019.0
20260508201531 8 86 9.7 0.0 0.00 0.00 0.05 49 1019.0
20260508200035 8 106 9.7 0.0 0.00 0.00 0.05 47 1019.1
20260508194530 8 107 8.0 0.0 0.00 0.00 0.05 47 1019.1
20260508193029 8 113 8.0 0.0 0.00 0.00 0.05 47 1019.2
20260508191529 8 102 8.0 0.0 0.00 0.00 0.05 47 1019.3
20260508190038 9 132 8.0 0.0 0.00 0.00 0.05 46 1019.3
20260508184528 9 96 8.0 0.0 0.00 0.00 0.05 46 1019.4
20260508183028 9 103 6.4 0.0 0.00 0.00 0.05 46 1019.5
20260508181527 9 86 6.4 0.0 0.00 0.00 0.05 44 1019.6
20260508180028 9 101 8.0 0.0 0.00 0.00 0.05 44 1019.6
20260508174540 10 96 6.4 0.0 0.00 0.00 0.05 44 1019.7